sat.trackr.live / text

‹ back to catalog

STARLINK-2106

NORAD 47386 · 2021-005AP

PAYLOAD ACTIVE UNKNOWN

§ Identity

Operator
Country
US
Launch date
2021-01-20
Launch site
AFETR
Launch vehicle
Mass (kg)
RCS (m²)

Purposes: comms

External: N2YO · Heavens-Above · Gunter

§ Orbital elements

Epoch: 2026-09-19T07:00:01.869984Z

Period
94.01 min
Inclination
53.1569°
Eccentricity
0.0002324
Mean motion
15.31698909 rev/d
Perigee alt
469.2 km
Apogee alt
472.3 km
Semi-major
6,848.9 km
B*
4.7004e-6
RAAN
216.4560°
Arg perigee
112.7677°
Mean anomaly
247.3570°
Rev number
31,304

§ Raw data

STARLINK-21061 47386U 21005AP  26262.29168831 -.00000220  00000+0  47004-5 0  99962 47386  53.1569 216.4560 0002324 112.7677 247.3570 15.31698909313045

JSON: /api/v1/satellites/47386 · /tle

For live sub-satellite position, see the globe view (requires WebGL).

§ Visibility from observer

Set your observer location to see the next 7 days of passes ≥ 10°. The values pass through the URL so the page stays shareable.

No JS? Fill the form by hand. The geolocation button needs JavaScript.